| time (UTC) | temp F | wind direction | speed knots | gust knots | rain 1hr in | rain 24hr in | rain mn in | humidity % | barometer mb |
| 20260506013036 | 68 | 190 | 0.0 | 1.7 | 0.00 | 0.00 | 0.00 | 70 | 1013.9 |
| 20260506011542 | 69 | 0 | 0.0 | 1.7 | 0.00 | 0.00 | 0.00 | 68 | 1013.9 |
| 20260506010048 | 71 | 190 | 0.0 | 1.7 | 0.00 | 0.00 | 0.00 | 67 | 1014.1 |
| 20260506004537 | 72 | 190 | 0.0 | 2.6 | 0.00 | 0.00 | 0.00 | 60 | 1013.9 |
| 20260506003035 | 73 | 0 | 0.0 | 1.7 | 0.00 | 0.00 | 0.00 | 58 | 1013.7 |
| 20260506001546 | 74 | 0 | 0.0 | 1.7 | 0.00 | 0.00 | 0.00 | 53 | 1013.7 |
| 20260506000038 | 74 | 0 | 0.0 | 1.7 | 0.00 | 0.00 | 0.00 | 55 | 1014.0 |
| 20260505234556 | 74 | 190 | 0.0 | 1.7 | 0.00 | 0.00 | 0.00 | 50 | 1013.7 |
| 20260505233040 | 75 | 193 | 0.9 | 2.6 | 0.00 | 0.00 | 0.00 | 49 | 1013.7 |
| 20260505231536 | 76 | 0 | 0.9 | 4.3 | 0.00 | 0.00 | 0.00 | 47 | 1013.8 |
| 20260505230038 | 76 | 143 | 0.9 | 4.3 | 0.00 | 0.00 | 0.00 | 46 | 1013.7 |
| 20260505224537 | 77 | 153 | 0.9 | 5.2 | 0.00 | 0.00 | 0.00 | 44 | 1013.6 |
| 20260505223040 | 79 | 182 | 3.5 | 9.6 | 0.00 | 0.00 | 0.00 | 42 | 1013.8 |
| 20260505221536 | 79 | 228 | 2.6 | 7.8 | 0.00 | 0.00 | 0.00 | 42 | 1013.5 |
| 20260505220034 | 79 | 221 | 2.6 | 9.6 | 0.00 | 0.00 | 0.00 | 40 | 1013.6 |
| 20260505214558 | 79 | 163 | 2.6 | 7.8 | 0.00 | 0.00 | 0.00 | 41 | 1013.5 |
| 20260505213037 | 79 | 177 | 2.6 | 9.6 | 0.00 | 0.00 | 0.00 | 41 | 1013.8 |
| 20260505211536 | 80 | 167 | 5.2 | 12.2 | 0.00 | 0.00 | 0.00 | 41 | 1013.7 |
| 20260505210035 | 79 | 266 | 0.9 | 7.0 | 0.00 | 0.00 | 0.00 | 41 | 1013.9 |
| 20260505204542 | 79 | 134 | 3.5 | 10.4 | 0.00 | 0.00 | 0.00 | 41 | 1014.0 |
| 20260505203047 | 79 | 165 | 2.6 | 8.7 | 0.00 | 0.00 | 0.00 | 41 | 1014.0 |
| 20260505201539 | 80 | 282 | 3.5 | 9.6 | 0.00 | 0.00 | 0.00 | 41 | 1014.5 |
| 20260505200039 | 80 | 161 | 4.3 | 8.7 | 0.00 | 0.00 | 0.00 | 40 | 1014.4 |
| 20260505194544 | 79 | 257 | 1.7 | 7.8 | 0.00 | 0.00 | 0.00 | 44 | 1014.8 |
| 20260505193037 | 78 | 184 | 2.6 | 9.6 | 0.00 | 0.00 | 0.00 | 42 | 1015.1 |
| 20260505191541 | 78 | 258 | 2.6 | 13.0 | 0.00 | 0.00 | 0.00 | 40 | 1015.3 |
| 20260505190039 | 78 | 271 | 4.3 | 14.8 | 0.00 | 0.00 | 0.00 | 40 | 1015.5 |
| 20260505184536 | 78 | 252 | 3.5 | 10.4 | 0.00 | 0.00 | 0.00 | 43 | 1015.7 |
| 20260505183037 | 77 | 232 | 3.5 | 9.6 | 0.00 | 0.00 | 0.00 | 43 | 1015.8 |
| 20260505181535 | 77 | 254 | 1.7 | 11.3 | 0.00 | 0.00 | 0.00 | 44 | 1015.9 |
| 20260505174555 | 77 | 216 | 4.3 | 13.0 | 0.00 | 0.00 | 0.00 | 44 | 1016.5 |
| 20260505173043 | 78 | 213 | 2.6 | 10.4 | 0.00 | 0.00 | 0.00 | 44 | 1016.7 |
| 20260505171535 | 77 | 249 | 3.5 | 11.3 | 0.00 | 0.00 | 0.00 | 45 | 1017.0 |
| 20260505170035 | 75 | 257 | 1.7 | 11.3 | 0.00 | 0.00 | 0.00 | 47 | 1017.0 |
| 20260505164545 | 75 | 122 | 3.5 | 8.7 | 0.00 | 0.00 | 0.00 | 45 | 1016.7 |
| 20260505163037 | 75 | 269 | 2.6 | 9.6 | 0.00 | 0.00 | 0.00 | 52 | 1016.7 |
| 20260505161538 | 74 | 267 | 2.6 | 8.7 | 0.00 | 0.00 | 0.00 | 52 | 1017.1 |
| 20260505153035 | 71 | 236 | 1.7 | 7.0 | 0.00 | 0.00 | 0.00 | 56 | 1017.3 |
| 20260505151540 | 70 | 165 | 0.9 | 7.8 | 0.00 | 0.00 | 0.00 | 55 | 1017.5 |
| 20260505124540 | 53 | 0 | 0.0 | 0.0 | 0.00 | 0.00 | 0.00 | 94 | 1016.9 |
| 20260505123037 | 51 | 0 | 0.0 | 0.0 | 0.00 | 0.00 | 0.00 | 95 | 1017.1 |
| 20260505121536 | 50 | 0 | 0.0 | 0.0 | 0.00 | 0.00 | 0.00 | 95 | 1017.0 |
| 20260505120038 | 48 | 0 | 0.0 | 0.0 | 0.00 | 0.00 | 0.00 | 95 | 1016.6 |
| 20260505114535 | 46 | 0 | 0.0 | 0.0 | 0.00 | 0.00 | 0.00 | 94 | 1016.4 |
| 20260505113041 | 45 | 0 | 0.0 | 0.9 | 0.00 | 0.00 | 0.00 | 94 | 1016.4 |
| 20260505111538 | 45 | 164 | 0.0 | 1.7 | 0.00 | 0.00 | 0.00 | 94 | 1016.3 |
| 20260505101541 | 46 | 142 | 0.0 | 6.1 | 0.00 | 0.00 | 0.00 | 94 | 1016.1 |
| 20260505100038 | 46 | 148 | 0.9 | 1.7 | 0.00 | 0.00 | 0.00 | 93 | 1016.0 |
| 20260505094537 | 46 | 0 | 0.0 | 1.7 | 0.00 | 0.00 | 0.00 | 93 | 1015.9 |
| 20260505093039 | 46 | 0 | 0.0 | 4.3 | 0.00 | 0.00 | 0.00 | 93 | 1016.1 |
| 20260505091543 | 46 | 0 | 0.0 | 1.7 | 0.00 | 0.00 | 0.00 | 93 | 1015.8 |
| 20260505090034 | 46 | 0 | 0.0 | 3.5 | 0.00 | 0.00 | 0.00 | 93 | 1015.9 |
| 20260505084538 | 47 | 306 | 0.9 | 3.5 | 0.00 | 0.00 | 0.00 | 93 | 1015.8 |
| 20260505083036 | 47 | 0 | 0.0 | 5.2 | 0.00 | 0.00 | 0.00 | 93 | 1015.8 |
| 20260505081539 | 47 | 176 | 2.6 | 5.2 | 0.00 | 0.00 | 0.00 | 92 | 1015.8 |
| 20260505080035 | 47 | 0 | 0.0 | 1.7 | 0.00 | 0.00 | 0.00 | 92 | 1015.4 |
| 20260505074537 | 47 | 0 | 0.0 | 0.0 | 0.00 | 0.00 | 0.00 | 92 | 1015.4 |
| 20260505073046 | 47 | 194 | 0.0 | 0.9 | 0.00 | 0.00 | 0.00 | 92 | 1015.4 |
| 20260505071550 | 48 | 194 | 0.9 | 1.7 | 0.00 | 0.00 | 0.00 | 92 | 1015.4 |
| 20260505070041 | 48 | 0 | 0.0 | 0.0 | 0.00 | 0.00 | 0.00 | 91 | 1015.4 |
| 20260505064535 | 48 | 0 | 0.0 | 0.0 | 0.00 | 0.00 | 0.00 | 91 | 1015.7 |
| 20260505063047 | 49 | 0 | 0.0 | 0.0 | 0.00 | 0.00 | 0.00 | 91 | 1015.7 |
| 20260505061603 | 49 | 0 | 0.0 | 0.0 | 0.00 | 0.00 | 0.00 | 91 | 1015.8 |
| 20260505060039 | 50 | 0 | 0.0 | 0.0 | 0.00 | 0.00 | 0.00 | 90 | 1015.8 |
| 20260505054538 | 50 | 0 | 0.0 | 0.0 | 0.00 | 0.00 | 0.00 | 90 | 1015.7 |
| 20260505053041 | 51 | 0 | 0.0 | 0.0 | 0.00 | 0.00 | 0.00 | 89 | 1015.8 |
| 20260505051556 | 51 | 0 | 0.0 | 0.0 | 0.00 | 0.00 | 0.00 | 89 | 1015.7 |
| 20260505041537 | 53 | 0 | 0.0 | 1.7 | 0.00 | 0.00 | 0.00 | 87 | 1015.7 |
| 20260505040039 | 54 | 192 | 0.0 | 1.7 | 0.00 | 0.00 | 0.00 | 85 | 1015.7 |
| 20260505034536 | 55 | 0 | 0.0 | 1.7 | 0.00 | 0.00 | 0.00 | 84 | 1015.8 |
| 20260505033037 | 55 | 0 | 0.0 | 0.9 | 0.00 | 0.00 | 0.00 | 81 | 1015.9 |
| 20260505031539 | 56 | 191 | 0.9 | 2.6 | 0.00 | 0.00 | 0.00 | 80 | 1015.8 |
| 20260505030037 | 57 | 0 | 0.0 | 0.0 | 0.00 | 0.00 | 0.00 | 79 | 1015.8 |
| 20260505024541 | 58 | 0 | 0.0 | 0.0 | 0.00 | 0.00 | 0.00 | 78 | 1015.9 |
| 20260505023035 | 58 | 0 | 0.0 | 0.0 | 0.00 | 0.00 | 0.00 | 76 | 1015.9 |
| 20260505021537 | 59 | 0 | 0.0 | 0.0 | 0.00 | 0.00 | 0.00 | 75 | 1015.6 |
| 20260505020037 | 60 | 0 | 0.0 | 0.0 | 0.00 | 0.00 | 0.00 | 73 | 1015.5 |
| 20260505014537 | 61 | 0 | 0.0 | 0.0 | 0.00 | 0.00 | 0.00 | 72 | 1015.6 |